Theta_e
317 317 317 316 317 316 316 316 315 314 313 313 312 312 312 312 311 311 311 311 311 310 309 309 309 309 309 310 308 308 308 309 309 308 309 307 307 307 307 307 307 307 308 308 308 308 308 308 308 307 308 312 311 311 312 312 313 314 313 311 309 310 310 307 307 306 305 303 305 307 309 310 308 308 309 310 311 310 308 307 307 308 307 306 306
318 317 316 316 316 316 315 316 315 314 313 313 312 312 312 311 311 312 311 311 311 311 309 310 310 309 309 308 308 308 308 308 308 308 308 308 308 308 307 307 307 306 307 308 308 309 308 308 307 308 307 307 308 308 308 309 310 312 312 311 309 310 308 306 305 306 306 305 306 306 308 310 309 308 310 310 309 310 309 308 306 306 306 306 305
318 317 316 316 316 316 316 316 315 314 313 313 312 312 312 312 313 311 311 312 312 312 311 311 311 310 310 309 309 308 308 309 308 308 308 309 309 309 308 307 308 308 308 308 308 308 309 309 308 308 308 308 308 307 307 307 308 310 311 310 309 309 307 305 306 305 305 305 305 307 308 308 310 308 308 309 309 310 310 308 307 306 306 306 305
318 317 317 316 316 316 315 315 315 314 314 313 313 313 313 313 313 312 312 313 313 314 314 313 312 311 310 310 309 309 310 310 310 309 310 310 310 310 309 309 308 308 310 310 309 310 310 310 309 308 309 308 307 308 307 307 307 308 308 307 309 307 306 306 306 304 305 305 304 305 306 308 306 303 305 306 307 309 310 308 306 305 304 305 304
318 318 317 316 316 316 315 316 315 314 314 314 313 313 313 313 313 312 313 314 314 313 314 313 312 311 311 311 311 310 311 311 311 311 311 310 310 311 311 311 311 311 311 311 313 311 310 310 309 308 309 309 307 308 308 308 308 308 307 306 306 307 307 306 305 305 305 305 304 306 305 305 305 304 304 305 305 306 305 305 305 304 306 307 306
317 317 317 316 316 316 316 315 315 315 315 314 314 314 314 313 313 313 314 314 314 314 313 313 314 313 312 312 312 312 312 312 312 312 312 311 311 311 311 311 312 312 313 313 312 312 312 311 310 309 309 309 308 307 308 308 307 308 308 307 307 307 307 305 305 306 305 304 306 307 308 306 307 307 305 305 307 306 306 306 306 306 306 306 306
317 317 316 316 315 315 315 315 315 315 315 315 315 315 314 314 313 314 315 315 314 314 314 314 314 313 313 313 313 313 312 312 312 312 312 312 312 312 312 311 312 313 313 313 313 313 313 312 311 310 310 310 310 309 308 308 308 308 309 309 308 307 306 305 304 304 305 306 305 306 307 307 307 308 306 306 306 307 308 306 305 304 305 305 305
316 316 316 315 315 314 314 315 316 316 316 316 315 315 314 314 315 315 315 314 314 314 314 314 314 314 313 314 313 313 313 313 312 312 312 313 313 312 313 313 312 310 309 309 312 313 313 313 312 311 311 310 310 310 311 310 309 309 308 308 308 307 306 305 305 305 306 306 306 306 304 306 306 305 305 307 308 306 304 304 304 304 303 303 302
314 314 314 314 315 315 316 316 316 315 315 315 314 314 314 314 314 315 315 314 315 315 315 315 314 313 313 313 313 313 314 314 313 313 313 313 312 313 313 313 312 311 309 309 309 310 311 311 310 311 316 316 311 309 310 310 311 310 308 308 308 307 306 306 305 305 305 306 305 302 305 305 303 305 305 305 305 307 303 303 302 302 302 304 303
312 311 311 311 312 313 314 315 316 314 314 314 315 315 315 314 314 313 314 314 314 313 313 313 313 313 313 311 312 313 313 313 313 308 310 315 313 313 312 312 312 311 311 310 310 310 311 311 313 317 315 314 310 305 303 305 308 310 310 308 308 307 307 306 305 306 306 306 306 305 305 303 302 302 302 302 302 301 303 304 303 300 301 302 302
313 312 311 312 311 311 311 312 313 314 313 314 314 314 314 314 313 313 312 311 312 312 312 312 311 311 312 312 312 312 313 314 308 301 300 306 313 313 313 312 311 311 312 311 313 312 311 312 312 313 314 312 306 299 299 297 298 299 301 303 306 309 307 306 305 305 306 304 301 302 304 302 301 300 300 301 300 301 301 301 300 301 302 302 301
314 314 314 313 312 311 310 310 311 311 311 310 311 312 312 312 312 311 311 311 310 311 311 311 310 311 311 312 312 312 313 310 303 299 298 297 305 313 312 312 312 312 312 312 312 311 311 312 312 311 308 307 306 303 299 295 295 294 294 294 294 295 300 306 305 303 303 303 301 301 302 302 301 300 299 299 299 299 298 299 299 299 298 299 299
311 313 314 313 312 311 310 311 311 311 310 309 309 309 309 309 308 309 310 310 310 310 309 309 310 309 310 311 311 311 312 305 299 298 297 297 298 306 312 312 312 312 312 312 311 311 312 313 312 310 310 311 308 303 303 301 296 296 296 297 296 293 291 294 298 307 306 305 303 299 301 301 300 301 301 300 299 300 299 299 297 297 298 298 297
302 304 307 310 313 313 312 311 310 310 310 310 309 309 307 306 305 306 308 309 309 308 308 308 308 308 309 309 310 309 310 301 297 297 297 296 295 299 312 311 311 311 312 312 312 311 313 313 312 310 310 309 304 304 304 304 304 304 303 302 302 299 296 294 294 296 302 306 305 304 301 301 303 302 302 299 300 299 299 298 297 297 297 297 296
299 299 300 301 303 306 309 310 309 308 309 309 309 308 307 306 306 305 305 308 308 307 307 307 307 306 306 307 308 308 307 298 297 296 295 295 294 296 308 310 310 310 310 311 311 311 312 313 313 311 308 305 304 304 305 304 304 302 301 299 298 298 298 299 300 302 303 304 306 306 302 301 302 302 300 299 302 300 300 299 298 298 295 294 293
298 298 298 298 299 300 301 301 302 304 307 307 307 306 305 305 305 304 304 304 306 307 305 305 305 305 305 306 306 308 307 297 295 294 294 294 294 302 306 308 309 310 310 310 310 311 312 313 312 309 307 305 302 297 301 305 304 301 299 297 297 297 295 294 293 296 301 303 303 302 300 299 297 300 299 299 298 297 296 295 295 294 294 294 293
296 297 297 297 298 298 298 299 299 298 299 299 301 302 303 304 304 304 305 304 304 305 307 306 306 306 307 309 310 307 306 299 293 293 293 292 295 303 305 306 307 308 309 308 309 310 311 312 311 309 306 305 299 294 295 299 303 300 299 298 297 297 295 295 293 291 291 291 291 291 291 291 292 292 292 292 294 295 297 297 295 293 296 295 294
295 296 296 296 297 297 297 297 297 297 297 297 297 298 299 301 303 306 307 306 306 305 305 304 305 306 306 307 307 306 306 298 293 293 293 292 296 303 304 305 306 306 306 304 305 308 310 308 310 308 306 305 295 294 294 300 302 300 299 298 297 296 294 295 296 295 293 292 291 291 291 291 291 292 292 292 292 295 299 298 296 294 294 294 295
293 294 295 296 296 297 297 297 296 296 295 295 296 296 296 297 298 300 303 306 306 305 305 305 304 304 303 303 307 306 304 299 292 292 292 292 294 300 303 305 305 304 304 303 302 305 306 307 306 306 306 302 293 294 293 299 301 300 300 299 298 296 295 295 296 296 297 297 296 296 295 294 296 296 295 292 293 294 296 296 293 296 294 294 293
294 294 294 294 295 296 296 297 296 296 295 295 295 295 295 296 296 297 297 298 300 301 303 303 304 305 303 303 304 304 304 303 296 291 292 291 291 297 302 304 305 304 301 303 303 302 302 303 303 297 297 295 294 293 293 295 301 300 301 300 298 297 296 295 296 296 295 294 293 293 293 293 294 294 294 294 295 295 294 294 294 295 294 293 293
294 293 293 293 294 294 295 295 295 296 296 295 295 295 295 294 295 295 295 295 296 296 297 298 300 300 301 300 300 300 301 302 299 292 290 290 290 291 299 303 304 303 302 302 303 303 302 301 302 298 294 294 294 293 293 293 296 301 301 301 301 299 295 297 294 293 293 293 293 292 292 292 292 293 293 293 293 293 293 293 293 294 295 294 292
294 294 292 292 292 292 293 293 294 295 295 295 295 295 295 295 295 294 294 294 294 294 294 295 295 296 298 299 300 299 299 301 298 292 289 290 289 289 294 299 298 302 301 301 301 301 303 302 301 298 293 293 293 294 293 293 293 301 300 294 291 291 297 296 294 293 293 292 292 291 291 291 291 292 292 292 292 293 292 293 293 293 293 293 293
292 292 292 292 292 292 292 292 293 294 294 294 294 293 294 294 294 294 294 294 293 293 293 294 294 295 295 296 298 299 299 297 295 293 289 289 288 289 289 291 290 297 301 302 301 302 302 301 300 297 292 293 293 293 293 292 294 298 291 290 291 291 292 293 292 292 292 291 291 290 290 290 290 290 291 291 291 291 291 291 291 292 293 292 292
290 290 291 291 291 292 292 292 292 293 293 294 293 293 293 294 294 294 294 294 293 293 293 293 294 294 294 295 296 297 298 298 294 292 290 288 288 289 289 290 290 297 300 301 301 300 299 298 296 292 291 292 292 292 293 293 297 291 290 290 290 291 294 292 292 292 290 290 290 289 289 289 290 290 290 291 291 291 290 290 290 290 291 291 290
289 289 289 289 290 291 291 291 291 291 292 293 292 293 293 293 293 293 293 293 293 293 292 293 293 293 294 295 295 297 297 297 294 290 289 289 289 289 289 290 290 290 297 298 297 298 294 291 289 289 289 290 290 291 292 292 290 289 290 290 293 294 293 292 291 291 290 290 290 289 289 290 290 291 291 290 290 290 291 290 290 290 289 290 290
289 288 288 288 288 289 289 290 290 290 291 291 292 292 292 292 292 292 292 293 292 292 292 293 292 292 293 294 294 295 295 296 296 293 293 292 291 290 290 291 292 292 293 292 290 289 288 289 289 289 290 290 293 292 291 290 289 289 290 292 294 292 292 291 291 291 290 289 289 289 289 289 289 289 289 290 291 291 290 291 290 290 290 291 292
288 287 286 287 287 288 288 288 288 289 289 290 291 291 291 291 291 291 291 291 291 291 291 291 291 292 292 293 293 294 294 295 296 295 293 293 293 293 294 293 291 291 293 293 292 292 291 291 289 288 288 288 288 288 289 289 290 290 290 290 290 291 291 292 292 291 289 289 289 289 289 288 289 289 290 290 290 290 289 290 290 289 289 289 289
286 285 285 286 287 287 287 286 287 288 288 289 289 289 290 290 289 289 289 289 289 289 289 289 290 290 291 291 291 292 293 294 295 296 296 295 295 294 294 293 294 292 292 291 292 292 291 289 290 291 291 290 290 289 289 288 288 288 289 288 288 289 291 290 290 290 289 289 288 288 287 289 289 289 288 289 290 289 288 288 289 289 288 289 288
285 284 284 285 285 286 286 286 286 286 287 288 288 288 288 288 288 289 289 289 288 288 288 289 290 290 289 289 289 290 291 292 294 291 291 290 291 295 295 294 293 292 293 290 291 291 291 291 290 290 290 288 287 287 287 288 288 289 289 289 289 289 290 290 289 288 288 288 288 288 287 288 288 287 288 289 289 288 287 288 288 290 288 288 288
283 283 283 283 284 285 285 285 285 285 285 286 286 288 287 289 289 287 288 288 288 288 288 288 289 289 288 289 290 290 290 292 291 289 289 289 290 290 291 292 291 293 290 289 291 289 288 289 288 288 288 289 288 287 287 288 288 288 287 287 288 289 289 289 289 287 288 288 287 286 286 286 286 287 287 288 287 287 287 287 289 288 289 288 287
283 282 283 283 283 284 284 284 284 284 285 285 285 285 286 287 288 288 288 288 288 288 288 288 288 288 288 288 288 288 288 288 288 289 289 289 289 290 290 290 290 290 289 290 290 289 288 288 288 289 289 290 289 288 287 287 287 288 287 287 287 287 287 287 287 286 286 286 286 286 286 286 286 285 285 286 286 286 286 285 287 288 289 288 287
283 282 282 283 284 284 283 284 284 284 284 284 284 284 284 284 285 287 287 287 288 288 288 288 288 288 288 288 288 288 287 288 288 288 289 289 290 289 289 289 289 289 289 290 290 289 289 289 288 288 288 288 288 288 288 288 288 289 288 288 287 287 287 287 287 287 286 286 285 284 284 285 285 284 283 283 282 285 287 286 287 287 286 287 286
282 282 282 283 283 284 283 283 284 283 283 283 283 283 283 283 283 283 285 287 287 287 287 287 287 287 288 288 288 287 287 287 288 289 289 289 289 289 289 288 288 288 289 290 290 289 289 289 290 290 290 289 288 288 289 289 289 289 289 289 288 288 288 288 286 287 286 286 286 285 284 282 281 281 281 281 283 283 282 284 285 285 285 285 284
282 283 283 283 283 284 283 283 283 283 283 283 283 283 283 283 283 283 283 284 285 287 287 287 287 287 287 287 286 286 287 287 288 288 288 288 289 288 288 288 288 288 289 290 290 289 289 290 290 291 291 291 290 289 289 289 289 289 289 289 290 289 288 287 287 286 286 286 286 284 282 282 282 283 281 280 280 282 283 282 283 284 284 284 284
282 282 281 283 283 283 283 283 283 283 283 283 283 282 282 283 283 283 283 283 283 283 284 286 287 287 287 286 286 287 287 287 288 288 288 288 288 288 288 288 288 288 289 290 291 291 290 290 290 291 292 291 291 290 290 290 289 289 289 289 288 287 286 286 287 286 285 285 284 283 283 282 283 282 283 283 282 283 283 283 283 284 285 284 284
282 282 283 283 283 283 283 282 283 283 283 282 282 282 282 283 283 283 284 284 284 284 285 286 286 287 288 287 288 287 287 287 287 287 287 287 288 288 287 288 287 287 288 290 290 289 289 289 289 289 289 289 289 289 288 288 287 288 289 289 287 287 287 287 286 285 285 285 284 283 282 282 283 282 281 282 283 283 282 283 283 283 283 284 285
282 283 283 283 282 282 281 281 282 282 282 282 282 283 283 283 283 284 284 284 284 285 285 286 287 287 288 287 288 287 287 287 286 287 286 286 286 287 288 288 288 288 287 289 289 288 287 287 287 287 287 287 288 289 288 289 289 289 288 289 288 288 288 287 286 285 285 284 283 283 283 282 282 282 284 283 281 279 280 281 282 283 284 284 285
283 283 284 282 282 281 281 281 281 281 282 283 283 283 283 283 284 285 285 285 285 285 285 286 286 286 285 286 289 287 286 286 286 287 286 286 285 286 285 286 288 288 288 288 287 288 288 288 288 289 289 289 289 289 289 289 288 287 287 287 287 288 287 286 285 285 285 284 283 283 283 282 281 281 282 283 283 282 281 282 284 285 285 285 286
283 282 281 280 280 282 281 281 282 282 282 283 283 283 283 283 284 284 285 285 285 285 285 285 286 285 286 286 286 287 286 286 284 283 282 283 283 284 284 285 286 287 287 288 287 287 287 288 288 289 289 289 289 289 289 288 287 287 287 287 287 287 286 285 284 283 283 283 283 282 283 282 281 281 282 283 282 281 282 282 283 285 285 286 286
284 285 284 281 282 281 281 281 283 283 282 282 283 283 283 284 284 284 285 285 285 285 285 285 285 285 286 286 286 285 285 285 284 282 282 283 283 284 285 285 285 286 286 288 288 288 288 288 288 289 289 288 288 287 287 286 287 287 286 286 285 285 285 284 284 284 283 282 282 281 282 281 279 278 279 280 281 281 282 284 285 285 286 285 285
286 286 285 284 283 282 282 283 283 283 283 283 283 283 284 284 285 285 285 285 285 285 285 285 285 286 286 286 285 285 285 284 284 284 283 283 283 284 284 285 285 286 286 286 286 286 287 287 286 287 287 287 286 286 286 285 285 285 285 284 284 283 283 283 283 282 281 281 281 280 279 279 279 281 282 280 280 281 282 283 284 285 285 285 286
287 288 289 286 284 284 283 282 283 283 283 283 283 284 284 285 285 285 285 285 285 285 285 285 285 286 285 286 285 286 285 284 284 284 284 284 284 284 284 284 285 285 285 285 285 286 285 285 285 285 285 284 285 285 285 284 284 284 285 284 284 283 283 282 281 280 281 281 279 278 277 277 278 281 282 280 280 281 282 283 283 284 285 286 286
286 289 289 287 285 283 283 283 284 284 283 283 283 284 285 285 285 286 285 285 285 285 284 284 284 285 285 285 285 285 285 285 284 284 283 283 284 284 284 284 284 285 285 285 285 285 284 284 284 284 284 284 285 285 285 285 285 285 285 284 284 283 281 280 280 279 279 279 278 278 278 278 277 277 278 278 278 280 281 281 282 284 285 286 286
289 290 290 288 285 283 282 283 283 283 283 283 284 284 285 285 286 286 285 285 285 285 284 284 284 284 284 285 285 285 285 284 284 284 284 283 283 283 284 284 284 284 284 284 284 285 284 284 283 283 283 283 283 283 284 285 285 285 285 284 283 282 282 281 280 279 279 278 276 276 275 276 275 276 278 277 277 280 279 280 281 283 285 286 286
288 290 289 287 285 284 283 282 282 283 283 283 283 284 285 285 285 285 285 285 285 285 285 285 285 284 284 284 284 284 284 284 284 284 283 283 283 283 284 284 284 284 284 283 283 283 282 281 281 280 280 280 281 281 281 281 281 282 284 284 283 282 280 279 277 276 277 277 277 276 275 276 275 275 277 275 276 278 279 279 280 282 284 285 285
287 288 288 287 285 284 284 283 282 283 283 283 283 283 284 285 285 285 285 285 285 285 285 285 285 285 284 284 284 284 284 284 283 284 283 283 283 283 284 284 284 283 283 282 282 281 281 280 279 279 278 278 279 279 280 280 280 279 278 278 277 276 276 276 275 275 276 276 276 277 276 276 276 276 277 276 277 277 278 277 277 281 284 285 285
286 286 286 287 288 287 285 284 283 284 284 284 283 284 284 284 285 285 285 285 285 285 285 286 286 285 285 285 284 284 284 284 284 284 284 283 283 283 283 283 283 282 282 281 281 280 279 278 278 278 278 278 278 278 278 279 279 279 279 279 279 279 278 278 278 277 277 277 276 276 276 276 275 275 276 276 276 276 277 278 280 282 283 285 285
285 286 288 288 289 288 285 284 283 283 284 283 284 284 284 284 285 285 284 284 284 284 285 285 285 286 285 285 285 285 285 285 285 284 284 284 284 284 283 283 281 280 279 279 278 278 278 277 276 276 276 276 276 276 277 277 277 277 278 278 278 278 278 278 278 278 279 279 279 279 278 278 277 277 277 277 277 277 278 280 280 281 283 284 285
287 287 287 288 288 288 286 284 284 284 284 284 284 284 284 284 284 285 285 284 284 284 284 284 284 285 285 285 285 285 285 285 285 284 284 284 284 283 283 282 281 280 279 278 277 277 276 276 275 275 274 274 274 274 275 275 275 275 276 276 276 275 276 276 277 277 277 278 277 277 277 277 278 277 277 277 277 276 277 278 278 280 282 283 284
286 286 287 287 286 286 285 284 285 285 285 284 284 284 284 284 284 284 284 284 284 284 284 284 284 284 283 284 284 284 284 284 284 284 284 284 284 283 282 281 279 279 278 278 277 277 276 276 275 274 274 274 274 274 274 274 274 274 274 274 273 273 273 273 273 273 276 277 278 278 278 278 279 278 277 277 277 277 276 277 278 279 280 281 282
286 285 284 284 283 283 283 284 284 285 285 284 284 284 284 284 284 285 284 284 285 285 284 284 284 284 284 284 283 283 283 283 283 283 283 283 283 282 281 279 278 278 277 277 276 276 275 275 275 274 274 274 273 273 273 273 273 273 273 273 273 272 272 272 273 272 272 275 277 278 278 278 278 278 277 277 276 276 277 278 278 279 280 281 282
Wind_Speed
4 5 5 6 7 8 7 7 7 7 7 7 8 6 6 6 6 6 5 5 5 6 6 6 6 6 6 5 5 4 4 4 4 5 6 5 5 5 5 6 6 4 5 6 5 5 5 7 5 4 2 5 5 4 4 4 4 3 3 4 4 4 5 4 5 5 2 1 0 2 2 4 2 1 3 2 2 1 2 2 1 1 1 2 2
6 5 4 5 7 7 7 7 8 7 8 7 7 7 6 6 6 5 6 5 6 6 6 5 5 6 6 5 5 4 4 4 4 4 6 5 4 4 5 6 6 5 5 5 5 5 5 7 6 5 4 5 3 3 3 4 4 4 4 4 4 5 3 5 3 5 5 0 2 1 3 2 4 1 4 4 2 1 0 1 1 1 1 2 2
5 6 6 6 6 6 7 7 7 8 8 7 7 7 6 6 5 7 6 6 4 7 7 7 7 6 5 5 5 5 4 4 3 4 4 5 5 4 4 5 5 5 5 5 5 5 7 6 5 5 4 6 5 3 3 3 3 4 5 3 4 4 2 2 5 4 6 3 1 3 3 2 2 3 3 2 2 2 2 1 1 0 1 1 0
5 5 6 6 5 5 6 6 8 8 8 7 8 7 6 5 5 5 6 5 6 3 5 6 6 6 6 4 4 5 5 4 3 3 5 5 5 5 5 5 5 5 5 5 4 5 6 6 5 5 5 6 5 5 3 4 4 4 4 4 4 4 2 1 4 5 4 5 3 2 1 4 1 1 2 2 2 2 1 0 1 1 1 0 1
6 6 7 8 7 7 7 7 8 8 8 7 7 6 6 6 5 5 5 5 4 5 3 4 5 6 6 6 5 5 5 5 4 3 3 2 4 5 5 5 5 4 5 5 4 5 5 5 5 5 5 6 4 4 4 6 4 5 5 5 5 5 3 3 4 5 7 6 4 1 1 1 1 1 3 4 3 3 2 2 1 2 3 2 2
6 6 6 7 7 7 7 7 8 7 6 5 7 7 7 7 7 5 6 6 4 4 6 4 5 5 4 5 5 4 4 4 4 4 4 4 3 3 4 5 6 5 4 4 4 4 6 5 5 5 5 6 5 4 4 6 5 5 6 5 5 6 6 4 5 6 6 5 6 4 2 4 3 2 2 3 5 3 3 4 4 3 3 5 5
4 4 4 5 6 5 6 6 5 6 6 5 5 7 6 6 6 6 5 6 5 5 4 5 3 5 4 4 4 4 4 4 4 4 4 4 4 4 5 5 6 5 4 4 3 3 4 5 5 4 5 6 6 6 5 5 5 5 6 7 6 7 6 6 6 7 7 6 3 2 4 1 2 4 1 2 3 2 4 4 5 3 3 3 4
4 3 7 6 5 5 6 6 6 6 7 6 2 2 3 3 3 3 3 5 5 5 5 4 4 4 5 4 4 4 5 4 4 4 4 4 5 4 5 5 5 4 3 3 3 4 3 3 3 3 4 5 6 6 6 6 4 5 3 4 5 6 6 5 5 6 6 5 3 4 1 3 2 2 1 3 4 3 2 2 6 4 4 4 4
5 4 4 6 8 8 6 6 7 6 5 7 4 0 0 1 1 2 3 3 4 3 4 4 4 5 4 3 3 3 5 5 5 6 6 5 4 5 5 6 6 5 4 3 2 2 2 2 3 3 3 4 4 4 4 5 6 6 3 4 5 6 5 4 5 5 5 5 4 2 4 4 2 4 4 3 4 4 1 2 4 2 2 4 3
5 5 4 3 2 2 2 7 9 7 5 5 9 8 6 5 4 4 3 1 2 2 3 3 3 4 5 4 4 4 4 4 4 7 6 6 6 5 4 4 5 5 5 4 3 2 2 1 1 3 3 4 4 3 4 4 4 4 6 7 7 6 5 6 5 5 6 6 5 6 6 4 2 3 3 1 1 2 4 5 6 2 3 4 2
5 5 5 5 5 6 5 4 2 4 3 2 2 4 5 3 4 4 2 2 3 3 2 2 3 3 4 5 5 4 3 2 2 4 5 3 5 5 6 5 4 5 5 5 5 4 2 1 1 3 4 4 4 6 6 7 8 10 10 7 3 6 8 6 5 5 5 5 3 4 5 5 2 2 3 4 1 3 4 4 5 3 3 3 1
7 6 6 5 5 6 6 6 6 5 4 3 1 1 2 2 2 2 1 2 3 4 2 0 1 2 2 2 4 4 4 4 5 6 6 3 1 4 4 4 4 4 4 4 4 4 3 2 1 1 2 3 4 5 5 7 8 9 9 8 7 7 3 6 6 4 5 6 4 4 6 6 5 5 4 4 5 4 4 4 3 4 4 3 2
9 9 8 7 7 5 5 5 4 5 4 4 3 3 3 3 2 2 3 4 2 2 2 1 1 1 2 3 3 2 2 2 5 5 5 5 3 2 4 5 5 5 5 5 5 4 4 4 3 3 3 7 5 5 6 7 8 11 10 11 10 9 7 5 2 5 7 7 8 5 5 6 6 4 4 5 3 6 3 4 3 3 3 4 3
11 10 10 9 7 6 5 6 5 5 3 4 4 4 3 3 4 4 3 1 0 1 2 2 1 1 1 0 0 1 2 5 3 2 2 2 2 1 2 3 4 5 5 5 5 5 5 5 5 5 4 4 5 6 6 7 6 6 6 6 5 7 8 9 8 8 5 7 9 7 4 5 6 5 3 5 6 5 5 4 3 3 4 3 3
12 11 11 11 11 10 9 8 6 5 4 3 4 4 4 5 5 3 2 1 1 1 2 2 2 2 2 2 1 2 1 5 4 2 2 3 3 2 2 2 2 3 4 5 5 5 6 5 6 6 6 5 5 7 8 8 7 6 6 5 5 5 5 5 4 2 4 4 6 7 7 4 6 6 4 2 5 4 4 5 5 4 5 3 3
12 11 12 11 11 10 9 10 10 9 7 6 7 7 7 6 5 4 3 4 4 3 4 3 2 2 4 3 3 4 5 7 7 6 5 4 3 3 3 3 4 4 4 4 5 5 5 6 6 6 6 5 6 8 7 8 8 7 7 6 6 6 6 4 5 5 6 6 7 7 6 6 7 7 6 7 6 5 6 6 5 5 6 3 3
12 11 11 11 11 11 11 11 10 10 9 9 9 8 8 7 6 5 4 4 1 2 2 2 3 3 3 4 3 2 3 2 7 6 6 6 4 4 3 4 4 5 5 4 4 5 5 7 7 6 6 6 9 11 11 10 9 9 8 7 5 6 6 4 9 12 14 14 14 13 12 12 11 10 9 8 7 6 6 5 3 2 3 2 0
10 10 10 9 9 9 9 9 9 10 10 10 9 7 7 6 7 4 4 2 3 3 1 1 0 1 3 5 4 2 1 1 3 3 4 5 4 4 4 4 5 5 5 4 3 4 6 9 8 7 7 7 11 12 12 11 9 9 10 10 8 8 5 4 6 7 12 14 14 13 12 11 11 11 9 8 5 1 4 4 4 3 3 2 1
9 9 8 7 7 8 8 9 8 8 8 9 7 8 8 7 6 6 6 4 4 4 4 3 3 3 3 2 3 2 1 2 5 5 5 5 4 4 4 4 5 5 4 5 4 4 5 6 10 9 8 9 14 13 13 10 9 10 10 9 9 9 8 7 9 9 7 8 7 8 9 8 7 6 7 11 10 6 5 6 4 3 3 2 2
8 7 7 8 7 8 8 9 7 8 8 8 9 8 6 7 8 8 8 7 7 7 6 6 5 4 4 5 4 4 5 3 1 3 4 4 4 4 4 4 6 6 4 5 5 5 5 5 6 9 10 12 14 14 14 11 10 9 9 9 9 9 7 6 5 7 7 8 6 6 7 5 5 5 6 7 7 7 6 4 2 4 4 3 1
8 7 7 9 10 10 9 9 9 8 7 7 7 7 8 8 7 9 8 7 7 8 9 8 7 6 6 4 5 5 4 5 4 2 4 4 3 4 3 4 3 3 4 5 5 6 6 6 6 7 9 10 13 15 14 12 9 9 9 9 8 9 10 8 6 8 8 7 7 6 5 5 5 5 5 5 5 5 5 5 4 3 4 3 3
4 5 7 8 8 9 9 8 8 7 7 7 8 7 5 5 6 6 6 7 8 8 7 7 7 7 7 7 6 6 5 4 4 2 2 3 5 4 3 1 2 2 4 5 5 5 7 6 7 10 12 12 13 14 15 11 10 7 7 6 12 15 9 7 7 6 7 7 6 6 5 6 5 5 5 5 5 5 5 5 4 4 2 2 3
4 5 6 7 7 7 7 7 6 5 6 6 7 7 6 7 7 7 7 6 6 7 7 6 6 6 6 5 6 7 7 5 1 2 1 3 4 5 6 4 3 1 4 6 6 5 5 6 7 8 11 12 13 13 13 12 9 7 10 12 14 15 11 7 7 7 6 6 7 6 5 5 6 5 5 5 3 4 4 3 3 3 2 2 2
5 6 6 6 6 5 5 5 5 5 6 5 6 6 7 6 7 6 6 6 6 7 6 6 6 7 7 6 5 5 6 6 4 5 2 1 3 3 4 5 5 3 3 4 3 4 3 3 7 9 5 7 10 13 13 12 8 10 12 14 15 13 8 8 7 7 7 7 6 6 5 4 5 5 5 4 4 4 3 3 3 3 2 2 1
6 6 6 6 6 5 4 5 5 5 5 5 6 6 6 6 7 7 6 7 7 7 6 6 6 6 6 7 7 7 6 6 4 2 1 4 4 5 5 5 5 6 3 3 2 1 3 7 9 9 7 6 6 2 2 4 7 11 13 15 12 8 8 8 7 7 8 8 7 6 5 5 5 5 5 4 4 3 4 3 3 3 2 2 1
6 6 5 5 5 5 6 5 5 5 5 4 5 4 4 4 4 4 5 5 5 5 5 5 5 5 5 6 6 7 7 6 5 4 3 2 2 1 1 2 4 5 5 4 7 9 9 11 12 11 8 6 5 4 4 5 6 8 11 11 6 7 7 7 7 8 8 6 6 7 6 4 4 4 4 4 5 4 3 2 2 1 2 1 2
6 6 7 6 6 6 7 6 6 6 6 5 4 4 5 5 5 5 4 4 4 3 2 2 3 3 3 3 4 5 5 5 6 6 4 4 4 4 2 3 5 7 5 4 4 5 8 8 8 10 10 12 11 10 9 7 8 7 6 6 5 4 4 6 7 8 7 6 6 5 4 4 4 5 4 4 4 2 1 2 2 2 1 1 0
6 6 7 5 5 6 6 8 8 6 6 5 5 5 5 4 5 5 5 5 5 5 6 6 5 5 6 6 6 6 6 5 4 6 7 6 6 6 5 2 5 4 5 5 6 6 7 8 9 6 7 7 7 6 6 6 4 6 7 6 5 5 6 7 6 5 5 6 6 5 5 5 5 4 2 2 3 2 1 1 1 1 1 0 1
6 6 6 6 7 6 6 6 6 6 7 7 6 4 5 5 5 4 3 4 3 3 3 4 3 3 4 4 5 6 7 8 7 7 9 10 8 7 6 7 6 5 6 9 5 4 7 7 7 7 6 5 5 7 6 6 5 6 8 7 6 4 3 3 6 6 6 7 8 7 4 5 4 2 2 2 2 1 1 1 1 1 1 1 1
6 6 5 6 6 6 6 6 6 6 6 6 8 7 4 3 1 2 4 4 4 4 1 2 4 4 4 4 2 3 5 7 11 15 14 13 15 14 13 11 9 7 9 14 8 6 3 5 7 8 8 8 5 4 4 5 5 5 3 4 5 6 4 4 5 5 4 5 7 5 5 4 3 3 3 3 2 1 0 1 2 1 1 1 1
5 5 5 5 5 5 6 6 6 6 6 7 6 8 10 5 6 7 7 8 7 6 5 6 6 4 3 5 7 7 9 11 12 12 14 14 12 13 12 10 10 11 14 8 1 4 5 5 5 6 8 9 10 9 7 7 5 6 5 5 4 4 3 5 4 4 4 5 5 4 4 4 4 3 3 4 4 2 1 1 2 2 2 1 2
5 4 4 3 4 5 4 5 6 6 6 6 7 7 7 10 8 7 11 13 11 9 9 11 10 9 7 5 6 7 8 7 10 13 14 13 12 10 9 7 8 11 14 8 3 4 5 6 5 6 6 7 7 8 9 9 8 8 7 6 6 6 7 6 6 6 5 5 5 4 4 4 4 4 3 3 2 2 1 1 1 1 1 1 1
4 4 4 4 4 5 5 5 5 5 6 6 6 6 6 6 8 12 8 8 10 11 11 13 14 14 13 11 7 5 8 11 12 12 12 11 10 9 6 5 4 6 6 3 4 5 5 6 8 8 8 8 8 10 10 11 10 9 8 7 7 6 6 5 7 7 6 6 6 5 5 4 3 3 3 2 3 2 2 1 1 1 1 0 1
3 3 3 4 5 5 5 5 5 5 4 5 5 5 6 6 6 6 9 11 7 4 4 11 13 14 13 12 11 12 12 10 12 13 12 10 7 6 5 3 5 8 7 4 4 6 6 7 8 10 10 9 9 9 10 11 11 11 9 8 8 7 5 5 7 6 5 5 5 5 5 4 4 5 3 2 1 2 2 2 1 0 0 0 1
3 3 4 4 4 4 4 4 5 5 5 6 6 5 5 5 4 6 7 7 8 10 10 10 11 11 10 8 9 12 12 12 10 11 11 8 6 6 6 2 0 2 5 5 5 4 4 5 5 6 6 6 6 7 8 10 10 10 9 8 7 7 7 7 6 7 5 4 4 4 4 5 4 3 5 4 3 2 2 2 1 1 0 0 0
3 4 3 3 3 4 4 5 5 5 5 5 4 4 5 5 6 7 7 7 7 8 8 8 7 8 10 7 12 14 14 13 9 7 7 6 7 6 2 1 1 3 4 6 6 5 3 1 3 5 3 2 2 1 3 2 1 3 7 8 7 8 8 8 6 6 6 5 5 5 4 3 4 4 3 3 4 3 2 1 1 2 1 0 0
3 3 3 2 2 3 4 4 5 5 4 5 5 5 6 7 7 8 7 8 8 8 7 8 9 9 9 8 12 13 16 13 10 5 8 6 4 3 1 1 3 5 5 5 6 6 4 4 4 4 4 4 5 5 4 7 7 7 5 6 8 9 8 8 8 7 7 5 5 5 5 5 4 4 4 3 2 2 2 2 1 0 0 0 2
1 1 1 1 3 3 5 5 5 5 6 6 6 6 6 7 7 6 6 7 7 8 9 9 8 8 9 10 12 8 10 9 9 6 8 7 5 3 2 1 3 3 4 4 4 5 5 4 6 7 8 7 7 7 7 8 6 5 5 3 3 5 9 9 9 9 8 7 6 5 4 4 4 3 3 4 3 3 2 1 0 0 0 1 0
2 1 1 4 2 3 4 4 5 6 6 6 6 6 6 6 6 6 6 6 6 7 7 8 8 8 8 9 9 9 8 6 6 5 5 4 3 3 3 3 2 2 2 4 2 2 5 5 4 4 5 6 5 5 4 3 4 5 5 3 2 3 6 6 6 7 7 6 5 4 4 3 3 3 3 3 3 2 2 1 1 0 0 1 1
1 0 1 3 3 4 5 5 5 6 6 6 6 6 6 6 6 7 7 6 6 5 6 7 7 7 8 9 9 9 8 6 5 5 5 5 5 5 5 3 3 3 2 3 3 3 2 2 3 4 5 5 4 5 5 3 3 4 4 4 2 0 4 7 7 7 6 5 4 3 3 4 3 3 3 2 3 2 2 1 1 0 0 1 2
1 0 3 2 3 4 5 5 6 5 5 5 5 6 6 5 6 5 5 6 6 6 7 7 7 8 7 10 12 10 5 5 6 5 5 5 5 6 7 6 5 5 4 2 2 4 2 3 2 2 2 2 3 4 4 5 4 4 6 5 5 5 3 4 5 5 6 5 4 4 3 4 4 3 3 2 2 2 1 1 0 0 0 1 2
1 1 3 2 3 4 5 5 5 5 5 5 5 5 5 5 5 5 6 5 6 7 7 7 8 7 8 15 12 11 7 6 6 6 6 7 6 6 6 6 6 5 4 4 3 1 2 4 4 3 4 4 3 2 7 8 7 7 5 7 6 7 4 2 3 4 5 5 4 5 4 4 4 2 3 3 4 3 2 1 0 0 0 1 1
0 0 2 4 3 4 5 4 4 5 5 4 4 4 4 5 5 6 6 7 7 8 7 7 7 7 8 10 10 9 6 7 7 7 6 7 7 7 7 6 6 5 6 5 5 4 4 5 5 3 3 4 5 3 3 5 8 6 6 7 6 4 4 3 3 4 4 4 5 4 4 3 3 5 4 3 3 2 2 2 1 0 1 1 1
1 0 1 3 4 4 4 4 4 5 4 4 3 4 5 5 5 6 5 6 6 6 6 6 6 7 7 7 7 7 7 7 8 8 8 7 7 7 7 6 6 6 7 6 6 4 4 5 5 6 6 6 6 7 5 4 4 5 5 6 5 4 4 4 5 5 5 5 5 5 4 3 3 4 4 3 2 2 2 2 1 1 1 1 2
0 1 3 4 4 4 4 4 4 4 4 4 3 3 4 4 5 5 5 5 5 5 6 6 6 6 7 7 8 8 8 7 7 7 7 8 8 8 7 8 7 7 6 6 6 6 6 6 6 6 8 7 6 7 7 7 6 5 4 4 5 5 3 3 2 2 2 6 7 5 5 5 5 4 4 2 1 2 2 2 1 1 1 1 2
2 1 1 2 4 3 4 4 4 3 3 3 2 1 2 3 4 4 4 4 5 5 5 6 6 6 6 7 7 8 7 7 6 6 7 6 6 7 7 7 6 6 7 8 8 8 8 8 8 9 9 8 8 7 8 8 7 8 8 8 7 6 4 3 3 3 3 2 2 3 3 3 3 2 3 2 2 1 1 1 0 1 1 2 2
2 3 3 3 3 3 4 5 4 4 3 3 3 2 1 1 3 3 4 4 4 4 4 5 5 6 6 6 6 6 6 6 7 8 8 8 8 7 7 6 6 7 8 7 8 8 8 8 8 8 7 6 5 6 7 7 7 7 7 7 6 6 5 4 4 4 4 3 3 3 3 3 2 2 2 2 2 1 1 0 1 1 2 1 2
1 2 2 3 3 3 4 5 5 4 3 3 3 2 1 0 1 2 2 2 3 3 3 3 4 4 5 5 5 6 6 6 6 6 5 6 6 6 6 7 7 7 6 7 7 7 7 8 7 7 7 7 7 7 8 8 7 7 7 6 6 6 6 6 4 4 3 3 2 3 3 3 2 2 2 2 2 1 1 1 1 2 2 2 1
2 1 1 2 3 2 4 5 6 5 4 4 4 3 2 2 1 1 1 1 1 2 3 3 4 4 4 4 4 5 5 5 6 6 6 6 6 5 5 6 6 5 5 6 6 7 7 7 7 7 7 7 8 8 7 8 7 7 7 6 6 8 6 5 3 2 2 2 2 3 3 2 2 2 2 2 2 1 1 1 1 2 2 2 2
2 1 1 2 2 2 4 5 5 5 4 4 4 4 3 3 2 2 2 1 1 2 3 3 4 4 4 4 5 5 5 5 5 5 5 5 4 4 5 6 6 6 6 6 6 6 6 7 7 7 7 6 6 6 6 6 6 6 5 6 7 6 6 5 4 4 3 3 3 2 2 2 2 2 1 1 1 1 1 2 2 2 2 2 2
3 2 2 2 2 3 4 4 4 4 5 5 5 4 4 4 4 2 2 2 2 1 2 2 2 3 4 3 3 4 4 4 5 5 5 5 4 4 5 5 6 6 6 6 6 6 6 6 6 6 6 7 7 7 7 7 6 7 8 10 9 9 8 7 4 4 4 1 1 1 2 2 2 2 1 1 1 1 1 2 2 2 2 2 2
Wind_Direction
184 173 156 157 147 151 150 144 141 142 148 156 151 152 147 151 158 153 131 136 135 127 131 144 150 141 129 124 127 128 120 99 84 99 95 91 76 92 74 83 86 63 73 61 56 71 73 88 75 60 67 127 137 137 137 143 131 108 128 134 130 154 125 102 116 113 81 316 143 162 125 132 144 177 141 105 92 67 61 45 36 47 53 47 41
162 157 149 151 158 157 155 149 149 152 151 155 151 150 152 158 153 142 148 157 148 142 146 153 142 131 127 127 127 120 106 97 98 102 107 102 88 79 89 91 91 77 83 74 58 77 84 86 75 70 79 93 87 119 144 146 158 156 178 164 159 176 174 106 102 128 162 160 77 48 117 182 151 191 176 169 161 120 96 14 34 26 28 52 50
148 140 142 152 164 161 151 149 151 157 156 161 158 157 159 158 156 151 154 156 163 150 157 155 145 131 125 136 135 119 105 104 97 104 110 120 114 87 96 106 114 109 91 96 87 99 87 86 76 86 99 90 73 74 81 120 156 195 198 177 170 186 206 124 124 113 153 192 145 162 162 137 138 184 179 173 147 164 172 210 238 32 45 61 148
123 133 138 147 150 147 154 152 157 160 163 169 167 163 154 153 161 158 157 154 155 170 155 145 134 131 131 139 135 120 119 117 108 120 139 138 126 127 122 111 110 120 127 125 115 97 113 96 94 109 114 101 99 100 97 122 155 178 188 164 148 172 152 349 101 128 157 143 219 179 165 145 209 85 126 109 137 143 204 147 84 79 55 46 318
136 145 152 150 151 152 157 161 160 166 172 173 166 150 149 153 161 159 155 159 151 150 143 125 128 133 141 155 145 138 144 141 129 121 113 114 134 137 136 129 126 130 140 145 140 126 118 122 146 125 115 105 97 100 124 126 142 149 159 155 151 159 148 141 135 127 143 158 141 74 141 127 184 153 166 147 117 95 63 63 67 100 76 40 66
141 150 150 144 153 159 160 158 160 164 165 163 160 154 153 160 161 174 171 156 156 168 150 142 142 148 148 151 150 146 138 139 147 150 139 123 112 115 124 129 133 136 141 137 138 143 137 143 154 148 131 126 138 127 128 132 135 134 141 146 146 147 146 139 128 123 129 138 143 133 94 152 151 133 201 174 147 122 85 83 68 46 84 80 46
150 144 119 141 146 146 138 136 142 137 139 151 166 154 161 158 156 179 179 157 161 170 148 148 141 134 135 130 138 135 133 139 146 139 136 140 147 146 133 130 131 130 121 114 111 127 140 145 159 163 143 141 145 149 133 123 127 138 151 147 152 142 140 145 138 133 142 135 93 129 132 33 152 163 73 90 90 127 141 124 73 51 47 61 77
155 155 150 149 140 136 141 133 126 121 108 88 48 64 88 121 169 187 172 161 166 163 149 151 142 126 138 153 147 133 135 140 144 142 143 157 156 164 163 148 134 121 104 92 94 89 97 122 150 184 169 162 151 156 145 130 122 113 128 130 142 132 133 130 125 131 138 134 122 146 69 133 72 48 80 129 106 60 40 122 127 129 82 62 58
119 129 155 161 157 150 138 121 117 108 121 118 108 94 83 274 256 236 216 182 156 160 146 150 145 129 121 124 122 126 148 169 173 165 158 162 166 175 178 165 153 145 136 115 96 95 103 144 153 185 191 173 166 156 158 152 143 129 144 133 126 124 114 116 129 129 127 128 112 64 112 99 75 133 123 117 173 159 134 123 102 98 126 102 65
63 62 58 46 34 19 114 150 150 143 149 165 164 183 197 201 204 225 230 140 106 112 127 132 147 155 147 140 141 152 177 182 189 186 179 170 175 178 175 178 165 154 146 142 150 140 153 194 235 146 151 149 147 132 110 98 87 114 157 153 140 123 130 131 142 145 140 148 157 145 124 130 141 143 127 164 114 124 116 117 115 142 108 87 89
52 52 52 46 42 59 43 7 60 115 126 141 192 178 179 177 196 215 197 108 100 85 100 141 161 170 181 172 172 175 181 196 203 192 204 182 166 176 184 189 180 170 171 173 183 173 183 209 246 135 132 121 105 103 97 89 95 102 103 102 96 141 138 128 137 141 145 140 131 130 138 139 166 203 143 131 52 115 113 107 107 111 116 131 174
62 53 56 65 73 54 38 43 44 46 57 39 9 126 123 132 171 209 180 113 98 98 104 150 150 171 183 186 186 188 197 196 184 188 191 201 204 189 186 183 194 198 195 196 188 172 181 186 204 50 125 141 137 113 82 85 101 99 95 89 92 81 108 150 149 144 146 133 138 157 146 160 149 153 144 131 125 88 85 106 114 131 135 123 145
44 45 48 57 62 80 81 82 71 69 82 90 69 38 58 60 49 33 17 23 76 105 119 118 184 207 191 205 228 228 240 219 194 184 181 178 196 195 183 186 191 211 206 203 199 182 169 187 201 179 151 146 132 122 125 106 94 97 92 87 73 76 81 96 153 165 150 132 138 162 176 157 144 181 178 152 153 114 123 89 99 103 117 121 150
46 42 41 37 39 49 73 78 74 51 35 83 101 102 93 94 103 98 87 76 91 113 110 142 142 93 54 39 23 21 34 48 43 330 258 218 214 226 224 207 214 213 212 204 199 191 184 192 196 196 173 136 137 140 134 119 122 101 80 63 67 58 56 59 72 95 128 147 149 157 191 154 146 150 146 135 121 135 134 138 132 125 120 121 136
46 43 47 43 44 42 45 47 42 46 47 21 51 52 55 50 44 41 83 126 132 144 156 135 103 117 147 147 110 72 119 133 144 187 259 266 229 218 235 234 231 238 228 210 204 197 197 198 198 193 169 159 174 161 139 136 114 103 94 80 63 44 43 28 16 59 105 110 131 124 129 134 110 117 134 115 112 128 149 157 166 128 110 76 74
40 36 43 42 45 45 49 52 45 36 29 29 27 26 28 30 37 21 29 33 44 67 63 76 122 175 187 167 148 182 212 169 161 165 179 205 210 235 230 236 239 239 238 227 213 203 201 197 194 184 177 170 175 165 146 133 116 105 89 70 65 57 52 26 30 58 79 94 93 100 111 109 113 124 129 120 108 109 85 81 82 101 120 128 153
38 29 34 37 40 41 43 48 50 47 45 40 31 28 26 20 25 15 42 40 26 71 68 122 184 198 227 239 227 173 256 148 145 160 178 186 182 224 227 237 241 240 239 234 218 209 205 201 190 176 168 181 172 162 152 134 116 119 121 109 98 89 73 50 62 73 81 84 89 94 99 99 98 102 109 123 135 135 117 96 98 119 110 129 66
40 36 32 29 41 47 46 46 46 42 43 44 32 28 32 37 33 14 64 49 356 70 186 113 206 269 349 331 355 329 310 78 120 150 184 199 219 241 242 244 249 244 255 258 239 227 220 206 191 174 177 182 171 166 159 145 136 138 137 128 127 118 121 130 94 76 78 81 82 84 84 88 88 82 76 71 72 116 136 132 159 114 101 118 147
30 33 33 30 35 50 59 59 55 53 48 44 38 30 29 29 17 28 37 44 38 360 26 39 7 16 338 291 315 297 253 154 167 178 195 197 208 237 241 234 247 247 234 249 259 234 234 219 201 191 185 173 170 169 167 160 144 152 152 137 139 150 167 157 132 122 115 93 73 80 63 62 66 74 69 67 63 56 66 107 143 108 124 127 112
14 20 28 30 32 36 45 53 47 49 50 46 39 36 20 32 30 39 27 30 31 26 19 23 16 7 347 329 330 338 327 325 152 182 197 204 209 240 234 220 234 238 223 222 227 239 235 229 223 211 191 172 174 174 176 172 158 155 151 151 150 165 160 143 129 116 101 100 96 82 87 81 82 78 67 61 56 52 60 73 110 113 115 132 129
19 13 26 31 31 31 27 35 39 35 41 50 46 31 29 27 31 42 38 28 35 32 26 16 18 5 348 344 346 340 328 311 331 169 170 176 189 224 249 246 296 266 235 226 217 218 221 223 222 208 198 186 184 178 181 182 168 160 167 168 178 148 136 126 119 118 108 107 98 93 93 85 75 72 77 72 69 67 66 58 59 79 113 125 148
39 30 39 42 42 37 33 27 26 24 19 27 49 46 27 37 41 45 46 43 41 34 23 16 13 9 8 9 10 353 338 334 308 311 207 208 169 183 220 250 2 244 233 235 239 242 227 219 213 204 195 186 196 187 180 175 169 163 174 131 121 132 134 112 122 113 109 110 112 102 96 92 86 83 75 73 72 69 69 64 61 71 64 126 147
53 55 51 48 44 44 42 39 37 33 31 26 37 38 24 33 35 39 46 50 49 41 26 15 14 9 12 28 27 14 1 345 263 296 214 226 230 185 187 211 321 310 215 236 236 263 272 241 228 211 195 191 191 190 177 170 165 169 148 141 141 129 120 121 119 116 113 111 107 106 109 115 110 107 104 102 99 92 98 93 84 82 76 61 41
55 51 46 49 53 48 45 44 40 37 37 37 42 42 30 26 33 35 35 46 43 39 25 14 17 17 1 351 16 25 12 11 11 41 61 205 231 256 241 226 223 231 235 258 276 254 264 305 335 326 244 198 185 182 180 170 169 158 149 144 136 130 118 119 120 119 120 115 117 126 127 128 121 126 139 146 132 133 115 105 75 56 58 54 52
57 50 43 34 29 32 44 46 46 41 36 38 46 39 36 28 33 18 29 37 38 41 22 15 21 2 5 356 349 354 5 6 7 27 109 189 208 218 228 211 220 187 201 238 326 296 91 69 66 68 48 58 79 102 171 170 147 148 143 139 133 125 132 128 131 129 127 137 135 132 140 160 154 136 138 130 125 99 78 58 48 38 15 7 6
53 48 42 40 28 23 36 30 37 40 37 39 51 49 51 49 59 34 33 35 42 44 26 19 6 4 354 349 349 342 340 352 1 3 3 357 341 273 117 115 83 72 49 59 68 69 74 82 83 75 69 50 52 57 87 74 91 119 133 136 127 125 122 119 124 132 134 141 145 148 152 145 128 129 125 110 102 119 124 110 113 64 19 11 2
47 37 29 23 23 26 35 27 20 23 25 24 33 41 31 35 47 56 51 36 25 27 47 25 6 356 343 329 326 325 329 349 353 353 350 323 306 293 332 52 89 100 96 61 48 66 76 85 90 86 80 73 75 75 62 62 85 80 52 33 43 63 100 138 150 138 143 141 135 125 124 125 121 111 108 114 134 143 62 119 122 100 115 94 231
41 34 27 27 28 23 25 21 23 14 12 18 22 21 34 29 43 47 34 31 12 6 353 353 356 348 340 338 338 342 341 343 360 3 348 325 295 276 279 231 216 188 133 144 140 125 113 100 83 71 78 77 70 53 70 80 83 90 76 61 53 56 72 77 63 85 92 113 110 118 115 124 121 115 112 124 160 117 74 131 176 129 105 168 19
41 34 26 27 21 16 22 20 16 16 5 4 11 30 31 18 25 20 58 53 41 350 324 305 305 331 326 323 335 333 332 332 329 335 314 304 291 280 259 235 215 212 186 150 121 128 126 115 113 108 106 106 110 105 88 62 42 56 93 100 90 91 121 159 142 140 147 137 138 136 134 117 121 105 110 146 182 133 117 140 84 75 99 113 54
41 30 28 29 16 15 13 14 13 14 13 6 357 357 78 67 20 75 357 18 10 339 227 293 309 322 319 292 213 253 290 289 304 311 308 308 302 283 261 240 215 186 168 161 145 136 158 154 149 142 141 134 124 126 131 124 115 90 63 90 110 117 108 98 118 141 142 131 132 136 151 142 127 128 157 178 146 133 325 227 149 167 120 83 12
48 30 28 20 10 14 16 16 11 16 16 12 12 5 347 40 48 28 33 12 12 30 39 16 4 352 313 308 309 294 280 286 297 304 308 309 301 285 273 245 208 184 162 147 136 154 174 190 187 163 157 158 161 163 153 138 136 131 133 128 117 119 129 135 148 145 142 139 150 150 149 154 161 158 176 187 160 171 161 147 129 118 107 62 2
56 33 26 15 20 24 26 27 22 24 14 16 16 8 13 349 356 60 26 7 10 18 19 11 2 352 337 309 304 312 316 313 314 312 311 315 310 290 254 223 202 183 183 159 138 187 183 183 179 176 171 169 166 155 156 152 153 159 156 146 160 172 160 166 175 162 155 147 147 152 161 167 167 168 172 163 168 151 140 115 100 111 85 57 23
51 32 29 25 30 30 31 29 28 32 27 22 17 25 22 21 1 336 9 38 13 11 7 359 355 352 348 348 342 312 301 306 314 318 316 317 311 282 228 175 194 209 167 163 193 196 192 187 180 181 181 179 170 164 165 162 164 167 162 164 169 183 193 183 156 158 159 161 154 164 168 161 147 149 160 157 151 145 121 138 126 101 88 24 306
50 44 40 35 37 30 26 30 32 33 33 33 36 31 34 29 9 3 341 342 10 50 22 347 349 351 353 356 348 340 331 327 333 336 337 336 326 280 217 167 161 202 217 211 196 203 199 202 197 189 189 186 181 173 171 172 168 164 164 167 176 186 167 143 158 160 155 159 164 162 152 153 156 146 150 123 70 104 146 154 131 145 35 182 293
53 49 44 45 59 43 38 39 39 36 32 33 31 30 32 18 15 12 5 360 350 345 339 340 340 355 344 341 339 338 335 334 339 343 346 359 28 72 87 67 239 235 261 269 266 279 250 231 229 227 211 205 202 188 183 180 169 167 161 163 157 154 154 164 168 157 153 151 150 154 165 161 168 154 147 147 145 156 161 157 143 172 203 269 295
57 54 36 34 37 39 36 38 42 41 41 35 38 45 30 24 21 10 8 8 357 340 334 335 327 321 334 332 347 348 344 340 337 348 5 49 84 84 64 12 321 284 260 256 250 237 149 55 20 17 17 17 16 34 53 55 83 134 154 152 155 159 163 163 158 152 153 156 159 153 152 156 147 138 123 130 148 154 156 178 171 194 203 238 295
55 48 32 15 30 37 35 47 46 49 45 41 42 34 30 28 21 17 12 1 349 340 335 335 339 342 347 357 357 343 342 341 335 343 28 20 24 46 46 231 213 215 230 254 279 297 279 235 183 177 196 183 190 181 174 173 175 167 169 175 165 163 167 164 160 150 147 149 153 162 162 151 152 148 141 137 133 136 172 195 200 205 163 246 259
88 87 43 360 49 43 49 34 36 43 39 43 40 36 33 28 16 3 353 349 347 344 347 348 347 349 350 336 342 348 333 329 340 3 11 15 22 16 8 307 260 260 282 267 242 253 247 206 176 175 182 183 183 177 174 173 166 151 148 171 190 185 161 157 149 144 144 141 148 155 146 145 149 136 121 137 162 177 180 185 173 105 123 195 239
64 53 82 81 68 79 83 56 46 40 41 41 38 36 30 18 360 354 349 345 343 347 347 348 347 348 344 337 334 338 345 359 3 348 333 337 341 350 347 360 5 360 257 248 212 260 255 226 201 180 172 171 162 148 148 155 150 150 127 123 176 162 147 137 137 134 139 141 139 147 140 136 135 140 146 149 159 151 150 151 146 131 347 320 309
85 238 82 88 80 66 56 63 53 48 42 40 39 35 30 11 354 346 345 342 344 342 344 348 345 345 340 344 343 342 355 353 349 340 339 348 348 341 353 352 356 354 344 313 275 234 183 154 134 138 142 126 119 120 107 102 113 105 106 122 121 181 144 135 136 138 136 136 130 134 132 139 139 134 136 128 140 141 138 134 142 180 269 293 299
123 107 76 68 77 79 72 63 57 52 49 49 47 42 28 354 340 343 345 344 341 344 348 348 348 342 342 342 343 350 1 359 346 342 353 4 358 1 355 353 1 353 335 321 5 352 348 62 38 37 55 83 106 108 100 91 78 81 98 97 96 79 18 40 80 97 115 116 118 122 128 139 150 152 153 156 125 117 126 127 161 181 267 277 282
69 99 123 116 112 99 87 76 74 65 65 58 47 34 3 345 349 350 346 344 350 349 352 354 351 342 339 348 356 0 16 12 1 3 5 16 18 15 10 6 13 1 346 356 1 52 52 52 50 41 67 51 27 98 125 116 111 117 124 114 109 105 108 100 108 120 121 119 123 133 139 132 134 122 119 123 129 134 125 132 102 79 292 285 301
79 66 144 136 125 112 114 114 91 68 68 58 50 17 345 348 350 352 356 4 5 5 7 1 352 349 350 350 355 4 18 17 15 13 15 19 21 27 23 18 24 25 26 15 19 21 40 55 61 56 57 73 82 52 27 105 121 121 120 111 114 122 128 136 117 97 92 101 123 135 133 133 128 114 110 97 107 113 122 138 135 97 288 299 330
89 113 137 115 102 91 111 121 101 90 86 88 72 27 355 350 359 358 359 358 3 10 15 8 2 0 1 355 2 19 25 22 23 21 23 24 27 25 22 25 30 32 29 31 26 23 50 72 74 62 48 41 40 56 57 48 84 119 112 105 105 123 130 124 120 140 139 137 130 115 116 130 119 112 99 98 121 126 136 103 92 333 305 340 333
131 131 139 126 131 143 125 107 112 114 116 102 71 40 18 10 1 348 346 348 347 354 10 14 13 14 12 16 20 23 24 25 25 28 31 32 33 31 29 33 31 33 33 36 36 40 44 46 54 57 57 44 33 44 48 50 39 42 45 89 111 112 97 92 97 96 118 119 81 107 108 107 102 85 85 110 115 130 132 121 101 283 309 349 341
192 177 175 157 145 154 133 133 143 133 131 119 114 77 15 6 1 351 346 346 351 352 3 10 19 25 28 27 28 28 27 28 31 31 35 33 34 34 33 32 34 38 37 39 37 39 46 51 49 51 51 52 55 54 58 58 55 56 58 60 72 82 86 82 91 85 71 83 122 135 135 121 112 118 121 130 118 99 90 79 180 268 313 321 312
187 184 185 195 197 168 153 158 155 146 137 127 128 129 80 10 353 350 1 2 356 349 355 358 10 20 28 29 30 31 26 32 36 40 40 40 41 41 42 35 35 39 37 39 42 45 46 45 48 57 62 57 56 57 54 55 57 56 54 59 64 65 68 71 72 78 86 90 100 105 113 119 105 107 106 94 86 71 53 343 267 293 290 300 303
177 216 215 217 218 184 153 153 147 147 143 137 141 149 148 258 333 12 8 1 5 357 353 360 10 10 16 24 26 30 31 31 34 37 36 39 41 41 37 44 47 47 47 45 42 48 53 55 51 53 55 53 54 57 57 56 53 52 52 52 50 51 51 48 53 57 65 80 86 101 114 117 120 121 111 108 107 117 106 298 306 304 296 288 288
96 97 187 180 194 193 155 161 165 174 166 155 152 164 170 174 225 278 311 339 21 358 12 20 17 13 16 15 26 39 40 40 40 38 41 45 42 38 42 49 55 51 53 55 50 49 53 55 57 52 53 54 58 60 60 60 56 55 52 49 46 43 46 53 73 79 89 93 85 80 87 108 125 126 123 130 135 144 196 240 260 289 304 292 296
111 129 128 140 149 177 168 168 171 166 157 155 161 161 168 173 204 273 299 284 28 16 23 17 21 17 24 22 24 30 39 42 42 44 46 45 47 49 48 45 44 42 45 51 50 42 47 55 58 59 57 54 54 59 61 62 60 52 46 32 21 22 26 28 36 36 49 73 81 100 116 122 132 131 146 154 169 183 222 238 271 298 309 312 304
148 122 117 134 142 158 154 158 164 166 166 165 165 170 169 176 194 229 274 259 148 101 60 27 20 19 28 21 33 39 41 47 48 49 47 45 47 55 52 56 53 50 51 51 49 47 45 45 46 49 50 51 50 49 47 46 42 36 26 19 18 16 15 17 20 21 31 49 52 120 130 141 153 160 172 153 172 198 261 301 303 305 303 290 294